Location: Newark
(34.0131°N, 4.3314°W)
Time: 13:31:46
(UTC+00:00)

Explorer 11/Cluster Stage 4 - Pass Details

Date: 29 October 2019
Orbit: 467 x 1259 km, 28.8° (Epoch: 22 November)

Event Time Altitude Azimuth Distance (km) Brightness Sun altitude
Rises 03:22:49 0° 214° (SW) 3,769 - -40.0°
Reaches altitude 10° 03:26:49 10° 194° (SSW) 2,645 - -39.2°
Maximum altitude 03:30:30 16° 159° (SSE) 2,076 - -38.4°
Exits shadow 03:32:31 14° 135° (SE) 2,133 9.1 -38.0°
Drops below altitude 10° 03:33:47 10° 122° (ESE) 2,310 9.4 -37.8°
Sets 03:36:56 0° 100° (E) 3,073 10.5 -37.1°
